Location: Puerto Pe�asco
(31.3170°N, 113.5330°W)
Time: 14:22:16
(UTC-07:00)

Daily predictions for brighter satellites

Satellite Brightness Start Highest point End
(mag) Time Altitude Azimuth Time Altitude Azimuth Time Altitude Azimuth
Meteor 2-12 Rocket 4.5 17:45:28 10° S 17:51:33 79° E 17:57:39 10° N
Cosmos 1844 4.5 17:49:46 10° SSW 17:55:24 58° WNW 18:01:07 10° N
SJ-12 4.5 17:54:17 10° S 17:58:23 65° W 18:02:31 10° NNW
Cosmos 2278 Rocket 2.2 17:55:37 10° S 18:01:14 71° ESE 18:06:54 10° NNE
Cosmos 1833 Rocket 4.4 18:00:30 10° NE 18:02:00 11° NE 18:03:30 10° ENE
SMAP 3.0 17:59:11 10° SSE 18:03:46 66° ENE 18:08:22 10° N
TSX-5 3.9 18:00:40 10° NNW 18:04:20 85° WSW 18:08:57 10° SSE
CZ-2C R/B 4.0 17:59:56 10° SSW 18:04:30 40° W 18:09:16 10° NNW
Aureole 3 4.3 17:59:42 10° N 18:04:36 84° W 18:10:51 10° S
Cosmos 1633 4.3 18:05:34 10° NE 18:07:36 14° ENE 18:09:37 10° ESE
Cosmos 1484 Rocket 2.7 18:03:57 10° SSE 18:07:44 78° ENE 18:11:37 10° N
Ariane Rocket 3.0 18:03:55 10° SSE 18:09:00 86° ENE 18:14:07 10° NNW
CORIOLIS 4.1 18:09:19 10° SSE 18:14:43 73° ENE 18:20:10 10° N
Cosmos 1606 3.4 18:11:36 10° SSE 18:15:00 32° E 18:18:24 10° NNE
Meteor 1-28 Rocket 3.5 18:12:51 10° N 18:16:33 69° WNW 18:20:13 10° SSW
AQUARIUS 4.3 18:15:41 10° S 18:20:10 80° WSW 18:24:40 10° NNW
Cosmos 1486 Rocket 4.0 18:17:34 10° SSW 18:22:45 89° ESE 18:28:00 10° NNE
Cosmos 1782 3.2 18:19:31 10° SSE 18:23:20 43° E 18:27:09 10° NNE
EO 1 Del DPAF 3.3 18:19:35 10° NNE 18:23:21 55° E 18:27:04 10° S
Cosmos 841 Rocket 4.0 18:20:01 10° N 18:24:54 38° ENE 18:29:45 10° SE
MTI 3.7 18:22:44 10° NNE 18:25:57 89° ESE 18:29:09 10° SSW
Landsat 4 4.0 18:23:01 10° N 18:26:48 70° WNW 18:30:34 10° SSW
SKYMED 2 3.5 18:25:12 10° NNE 18:29:32 70° ESE 18:33:50 10° S
Cosmos 1908 Rocket 3.6 18:25:39 10° N 18:29:54 54° E 18:34:07 10° SSE
Cosmos 2233 Rocket 4.4 18:24:16 10° SSW 18:30:31 69° W 18:36:45 10° N
USA 234 3.5 18:25:02 10° NE 18:31:33 71° NW 18:38:01 10° SW
Cosmos 1733 Rocket 4.2 18:28:47 10° NNW 18:33:03 48° W 18:37:18 10° SSW
SPOT 3 Rocket 3.9 18:28:45 10° SE 18:33:35 40° ENE 18:38:26 10° N
Cosmos 972 Rocket 4.3 18:29:04 10° NNW 18:33:55 67° WSW 18:38:51 10° S
Centaur AC-112 4.5 18:28:51 10° W 18:35:47 27° SW 18:38:28 10° SSE
Sich 1 Rocket 3.6 18:33:22 10° N 18:37:43 55° E 18:42:05 10° SSE
Meteor 1-25 Rocket 4.2 18:32:30 10° N 18:38:20 71° E 18:44:05 10° SSE
Cosmos 1354 Rocket 4.0 18:33:11 10° S 18:38:23 59° ESE 18:43:34 10° NNE
GPS 2-05 Rocket1 3.3 18:38:51 10° SW 18:41:53 41° SSE 18:42:59 29° ESE
Meteor 1-20 Rocket 4.1 18:37:15 10° N 18:42:47 70° E 18:48:12 10° SSE
NOAA 12 4.4 18:38:35 10° SE 18:43:36 44° ENE 18:48:37 10° N
Cosmos 405 Rocket 3.3 18:40:47 10° SSE 18:44:17 34° E 18:45:18 29° ENE
Cosmos 2082 Rocket 3.0 18:41:36 10° N 18:46:23 27° ENE 18:47:57 24° E
GENESIS II 4.0 18:43:10 10° NNW 18:47:05 78° ENE 18:50:57 10° SSE
CZ-4C R/B 4.4 18:43:44 10° N 18:47:31 15° NE 18:47:31 15° NE
MONITOR-E 3.9 18:48:22 10° SSE 18:51:24 79° ENE 18:54:27 10° N
Cosmos 972 4.3 18:47:40 10° NNW 18:52:39 87° ENE 18:57:31 10° SSE
Meteor 1-27 Rocket 4.1 18:47:37 10° SSE 18:53:05 43° E 18:58:11 12° NNE
ERS-2 2.5 18:52:37 10° S 18:56:17 64° W 18:59:55 10° NNW
METEOR-M 4.2 18:52:13 10° S 18:57:33 79° WSW 19:02:54 10° NNW
Cosmos 1513 Rocket 4.4 18:51:37 10° S 18:57:56 70° E 19:04:09 10° N
CZ-3A R/B 3.8 18:48:39 10° NW 18:59:59 52° NE 19:03:14 26° ESE
ERBS 2.2 18:56:41 10° NNW 19:00:04 66° NE 19:00:20 62° E
Okean 1-7 3.1 18:55:46 10° S 19:00:06 76° W 19:04:30 10° N
Meteor 1-10 Rocket 4.2 18:54:37 10° S 19:00:13 89° E 19:05:59 10° N
Cosmos 304 Rocket 4.4 19:00:45 10° NNW 19:05:28 58° WSW 19:10:09 10° S
Cosmos 1891 Rocket 4.4 19:03:40 10° S 19:09:54 86° E 19:16:02 10° N
USA 229 DEB 4.3 19:06:21 10° S 19:12:11 32° ESE 19:12:24 32° ESE
USA 229 4.3 19:06:29 10° S 19:12:16 32° ESE 19:12:26 32° ESE
Thor Agena Rocket 3.5 19:11:18 34° NE 19:13:23 61° ESE 19:18:28 10° S
YAOGAN 1 4.3 19:09:57 10° SSW 19:13:51 33° W 19:17:47 10° NNW
Cosmos 1782 Rocket 3.6 19:09:49 10° N 19:14:09 77° W 19:18:30 10° S
OAO 3 Rocket 3.4 19:09:41 10° SW 19:14:31 57° SSE 19:15:23 50° ESE
CZ-4 R/B 4.3 19:13:06 10° SW 19:15:49 18° W 19:18:32 10° NW
BREEZE-M DEB (TANK) 2.5 19:12:08 10° NW 19:17:27 67° SW 19:17:59 55° S
COSMO-SKYMED 1 4.5 19:13:42 10° NNW 19:17:27 29° WNW 19:21:12 10° SW
Cosmos 2034 Rocket 4.1 19:23:03 10° S 19:29:24 77° W 19:35:47 10° N
ALOS 3.0 19:26:24 10° S 19:30:57 54° W 19:35:31 10° NNW
FENGYUN 3A 4.1 19:27:44 10° S 19:33:04 61° WSW 19:38:26 10° NNW
SL-27 R/B 4.3 19:31:06 10° NNW 19:32:49 24° NW 19:32:49 24° NW
Nadezhda 4 Rocket 3.9 19:29:45 10° N 19:38:13 37° SSE 19:41:52 10° SSE
Meteor 1-11 Rocket 3.6 19:30:16 10° N 19:40:08 20° SSE 19:41:46 10° SSE
Cosmos 2369 Rocket 4.4 19:34:30 10° SSE 19:34:51 12° SSE 19:34:51 12° SSE
Cosmos 1833 Rocket 2.6 19:40:56 10° NNW 19:46:34 84° WSW 19:46:56 78° SSW
Okean 2 Rocket 4.1 19:46:17 10° NNW 19:50:35 45° W 19:54:52 10° SSW
Cosmos 968 Rocket 3.9 19:51:16 10° SSW 19:55:59 58° W 19:55:59 58° W
MOS 1-B Rocket 4.5 20:05:06 10° S 20:11:50 76° WSW 20:19:50 10° NNW
Cosmos 2082 Rocket 3.7 20:25:25 10° NW 20:29:59 32° W 20:29:59 32° W
CZ-4C R/B 4.3 20:29:53 10° NNW 20:32:45 26° NNW 20:32:45 26° NNW
